Temperature
9 9 9 9 9 10 10 9 9 9 9 10 10 9 9 9 9 9 9 9 9 9 9 9 9 8 8 8 8 8 8 8 8 8 8 8 8 8 9 9 9 9 9
8 9 9 9 9 9 9 9 9 9 9 9 9 9 9 9 8 8 8 8 8 8 8 8 8 8 8 8 8 8 8 7 7 7 7 7 7 7 8 8 8 8 8
8 9 9 9 9 9 9 9 9 9 9 9 8 8 8 8 8 8 8 8 8 7 7 7 7 7 7 7 7 7 7 7 7 7 6 6 6 6 7 7 7 7 7
8 8 8 8 9 9 9 9 8 8 8 8 8 8 8 8 8 8 7 7 7 7 7 7 7 7 7 7 7 7 6 6 6 6 6 6 6 6 6 6 6 6 6
8 8 8 8 8 8 8 8 8 8 8 8 8 7 7 7 7 7 7 7 7 7 7 6 6 6 6 6 6 6 6 6 6 5 5 5 5 5 5 5 6 6 6
7 7 8 8 8 8 8 8 8 7 7 7 7 7 7 7 7 7 7 7 6 6 6 6 6 6 6 6 5 5 5 5 5 5 5 5 5 5 4 4 5 5 6
6 7 7 7 7 7 7 7 7 7 7 7 7 7 6 6 6 6 6 6 6 6 6 6 6 5 5 5 5 5 5 5 4 4 4 4 4 4 4 4 4 4 5
6 6 6 6 7 7 7 7 7 7 7 6 6 6 6 6 6 5 5 5 5 5 5 5 5 5 5 5 4 4 4 4 4 4 4 3 3 3 3 3 3 3 3
5 6 6 6 6 6 6 6 6 6 6 6 6 5 5 5 5 5 5 5 5 5 5 4 4 4 4 4 4 4 4 3 3 3 3 3 3 3 3 3 3 2 2
4 5 5 5 5 5 5 6 6 5 5 5 5 5 5 4 4 4 4 4 4 4 4 4 4 4 4 4 3 3 3 3 3 2 2 2 2 2 2 2 2 2 1
4 4 4 5 5 5 5 5 5 5 5 5 4 4 4 4 4 4 4 4 3 3 3 3 3 3 3 3 3 3 2 2 2 2 2 2 2 2 2 2 1 1 1
3 3 4 4 4 4 4 4 4 4 4 4 4 4 3 3 3 3 3 3 3 3 3 3 3 3 2 2 2 2 2 2 2 2 2 1 1 1 1 1 1 1 1
3 3 3 3 4 4 4 4 4 4 3 3 3 3 3 2 3 3 3 2 2 2 2 2 2 2 2 2 1 1 1 1 1 1 1 1 1 1 1 0 0 0 0
2 3 3 3 3 3 3 3 3 3 3 3 2 2 2 2 2 2 2 2 2 2 2 2 1 1 1 1 1 1 0 0 0 0 0 0 0 0 -0 -0 -0 -0 -0
2 2 2 2 3 3 2 2 2 2 2 2 2 2 2 1 1 1 1 1 1 1 1 1 1 0 0 0 0 0 -0 -0 -0 -0 -0 -0 -0 -1 -1 -1 -1 -1 -1
2 2 2 2 2 2 2 2 2 2 1 1 1 1 1 1 1 1 1 1 1 0 0 0 0 -0 -0 -0 -1 -1 -1 -1 -1 -1 -1 -1 -1 -1 -1 -1 -2 -2 -2
2 2 2 2 2 2 2 2 1 1 1 1 1 1 0 0 0 0 0 0 -0 -0 -0 -0 -0 -1 -1 -1 -1 -1 -1 -1 -1 -1 -2 -2 -2 -2 -2 -2 -2 -2 -2
2 2 2 2 1 1 1 1 1 1 0 0 0 0 -0 -0 -0 -0 -0 -0 -1 -1 -1 -1 -1 -1 -1 -2 -2 -2 -2 -2 -2 -2 -2 -2 -2 -3 -3 -3 -3 -3 -3
2 1 1 1 1 1 1 0 0 0 -0 -0 -0 -1 -1 -1 -1 -1 -1 -1 -1 -1 -1 -1 -2 -2 -2 -2 -2 -2 -2 -2 -2 -3 -3 -3 -3 -3 -3 -3 -3 -3 -3
1 1 1 1 1 0 0 -0 -0 -0 -0 -1 -1 -1 -1 -1 -1 -2 -2 -2 -2 -2 -2 -2 -2 -2 -2 -3 -3 -3 -3 -3 -3 -3 -3 -3 -3 -3 -4 -4 -4 -3 -3
1 0 0 -0 -0 -0 -0 -0 -1 -1 -1 -1 -1 -2 -2 -2 -2 -2 -2 -2 -2 -3 -3 -3 -3 -3 -3 -3 -3 -3 -3 -3 -4 -4 -4 -4 -4 -4 -4 -4 -4 -4 -4
-0 -0 -1 -1 -1 -1 -1 -1 -1 -1 -2 -2 -2 -2 -2 -2 -2 -3 -3 -3 -3 -3 -3 -3 -3 -3 -3 -3 -3 -4 -4 -4 -4 -4 -4 -4 -4 -4 -4 -4 -4 -4 -4
-1 -1 -1 -1 -1 -2 -2 -2 -2 -2 -2 -2 -2 -2 -3 -3 -3 -3 -3 -3 -3 -3 -3 -4 -3 -3 -4 -4 -4 -4 -4 -4 -5 -5 -5 -5 -5 -5 -4 -4 -4 -4 -4
-2 -2 -2 -2 -2 -2 -2 -2 -3 -3 -3 -3 -3 -3 -3 -3 -3 -3 -4 -4 -4 -4 -4 -4 -4 -4 -4 -4 -4 -4 -4 -4 -5 -5 -5 -5 -5 -5 -5 -4 -5 -5 -5
-2 -3 -3 -3 -3 -3 -3 -3 -3 -3 -3 -3 -3 -3 -4 -4 -4 -4 -4 -4 -4 -4 -4 -4 -5 -5 -4 -4 -5 -5 -5 -5 -5 -5 -5 -5 -5 -5 -5 -5 -5 -5 -5
-3 -3 -3 -3 -4 -4 -4 -4 -4 -4 -4 -4 -4 -4 -4 -4 -4 -4 -4 -4 -5 -5 -5 -5 -5 -5 -5 -5 -5 -5 -5 -5 -5 -5 -5 -5 -5 -5 -5 -5 -5 -5 -6
Wind_Speed
5 3 4 4 4 3 4 4 4 3 3 2 2 2 1 1 1 2 3 3 3 2 2 2 2 2 1 0 1 1 1 1 2 2 3 3 2 2 2 2 2 3 3
4 4 3 4 5 5 5 4 4 4 4 3 2 1 2 1 1 2 3 3 3 2 1 1 1 1 1 1 1 1 0 1 2 1 2 3 3 3 2 2 2 3 3
8 6 5 5 4 5 5 5 5 4 3 3 2 3 3 2 1 1 1 2 2 2 1 1 0 0 1 1 1 1 1 1 1 1 0 0 2 4 3 3 3 3 3
7 6 6 5 6 6 4 4 4 4 3 4 4 4 3 1 1 1 0 2 2 2 2 1 1 0 0 1 1 1 1 1 1 2 1 1 1 2 4 4 3 3 3
6 7 6 6 5 4 4 4 4 4 3 3 4 4 2 1 1 1 1 1 2 3 2 2 1 1 1 1 1 1 1 1 2 2 1 1 2 2 2 5 5 4 3
5 5 4 4 3 3 3 4 4 4 3 3 3 4 4 3 2 1 1 0 1 1 3 2 2 1 1 1 1 1 1 1 2 2 2 1 2 2 2 4 5 5 4
4 4 4 4 4 4 4 3 4 3 3 3 3 3 3 3 3 2 1 0 1 1 2 2 1 1 1 1 1 1 1 1 1 2 2 2 2 2 3 4 4 5 4
3 4 4 4 4 4 4 4 4 3 3 3 3 2 3 3 2 2 2 1 1 1 2 2 1 2 2 1 1 1 1 1 1 2 2 2 2 2 2 2 3 4 4
2 3 3 4 4 4 4 4 4 3 3 3 3 2 2 2 2 2 1 1 1 1 1 1 2 2 2 1 1 1 1 1 1 1 1 1 2 2 2 2 2 3 4
2 2 3 3 3 3 3 3 3 3 3 3 3 2 2 2 2 2 1 1 1 0 0 1 1 1 1 1 1 1 1 1 1 1 1 2 2 2 2 2 3 3 4
2 2 2 2 2 2 3 3 3 2 2 2 2 2 2 1 2 1 1 1 1 0 1 1 1 1 1 1 1 1 1 1 2 2 2 2 2 2 2 2 2 3 3
1 1 1 2 2 2 2 2 2 2 2 2 2 2 2 2 2 1 1 1 1 1 1 1 1 1 1 1 1 1 2 2 2 2 2 3 2 2 2 2 3 3 3
1 1 1 1 2 2 1 2 2 2 2 2 2 2 2 2 1 1 1 1 1 0 0 0 1 1 1 1 2 1 2 2 3 3 3 3 3 3 3 2 3 3 3
2 1 1 1 1 1 1 1 1 1 2 2 2 1 1 2 2 1 1 1 1 1 1 0 1 1 2 2 2 2 2 2 2 3 3 3 3 3 3 3 3 3 3
1 2 2 1 1 1 1 1 1 1 2 2 1 1 1 1 1 1 1 1 1 1 1 0 1 1 1 2 2 2 2 2 2 2 2 2 4 5 4 3 3 3 3
3 3 2 2 2 2 2 2 2 2 2 2 1 1 1 1 1 1 0 0 0 0 0 1 1 1 2 3 3 3 2 2 2 2 3 3 3 5 6 6 6 5 3
4 4 3 3 3 3 3 3 2 2 2 2 1 1 1 0 0 0 1 0 0 0 0 1 1 1 2 3 3 4 2 1 2 2 2 3 4 5 4 5 6 6 7
4 4 4 3 3 2 2 2 2 2 2 2 1 1 1 1 0 1 0 0 0 0 1 1 1 1 2 4 4 4 2 1 1 2 2 3 4 4 4 3 4 4 5
5 4 4 3 3 2 2 2 2 2 2 2 2 2 2 1 1 1 1 0 0 1 1 1 1 1 2 4 4 4 1 1 2 2 3 3 3 6 7 4 4 4 5
2 2 2 2 2 3 3 3 3 2 3 2 2 2 2 2 2 2 1 1 1 1 1 1 1 2 2 4 5 5 1 2 2 3 3 5 5 6 6 3 3 4 5
1 1 2 2 3 3 3 3 3 3 3 2 1 1 2 2 2 2 1 1 1 1 1 2 2 2 3 4 5 5 2 2 2 3 3 3 6 7 7 6 3 5 5
1 1 2 1 1 2 3 3 3 2 1 1 1 1 1 2 1 2 1 1 1 1 1 1 2 2 3 3 4 5 4 4 3 3 3 4 7 7 7 6 6 7 5
1 1 2 1 1 2 3 3 3 1 1 1 1 1 1 1 1 2 2 1 2 2 2 1 2 3 2 3 5 5 5 5 3 3 5 6 7 7 5 6 6 5 3
1 1 1 1 1 1 1 2 2 2 2 2 2 1 1 1 1 2 2 2 2 2 2 2 2 3 3 2 2 2 3 4 4 3 5 6 6 5 5 5 4 3 2
1 1 2 2 2 1 1 1 2 2 2 2 2 2 2 2 2 2 2 3 3 4 3 3 3 3 4 5 6 4 3 3 3 3 2 2 2 2 2 3 3 2 3
1 1 2 2 2 1 2 2 2 2 2 2 2 2 2 2 2 2 2 3 4 5 6 5 5 5 6 7 7 7 7 7 6 3 2 2 2 3 3 3 3 3 3
Wind_Direction
230 207 188 173 157 144 147 158 146 143 131 120 121 127 140 134 86 60 63 64 72 82 87 79 57 60 89 36 14 58 31 2 356 2 335 324 315 324 318 332 337 337 335
225 204 187 174 172 169 167 170 164 157 153 151 151 141 128 124 99 47 48 46 47 53 65 83 119 119 125 73 46 53 18 342 12 16 349 329 331 328 321 322 325 324 339
217 206 195 192 180 180 180 179 176 166 158 140 113 100 83 69 63 28 3 7 25 47 56 53 57 146 168 195 218 204 172 289 324 352 129 291 279 308 306 304 311 321 329
216 208 196 192 194 196 182 172 168 162 156 144 143 141 143 160 199 202 212 2 23 36 47 60 66 29 246 222 239 232 242 210 269 305 303 247 237 278 304 305 306 317 318
213 206 200 194 191 182 170 168 158 148 146 139 149 148 138 147 126 108 84 39 15 27 32 38 47 39 356 318 288 264 259 233 236 252 287 294 303 264 264 292 307 313 300
213 202 190 170 164 152 155 156 154 151 145 139 138 143 144 138 129 128 130 21 342 3 10 16 14 16 14 331 316 305 283 268 271 266 255 254 264 279 272 278 294 298 299
201 188 177 172 166 158 157 156 154 153 146 140 138 143 145 146 156 170 177 189 308 299 313 345 335 337 330 319 322 275 277 264 264 276 279 281 272 277 269 271 285 295 300
201 193 187 179 174 168 162 158 162 161 153 148 150 143 143 149 159 172 178 199 238 277 310 320 325 323 321 321 324 284 267 271 263 279 286 296 303 301 283 271 287 300 296
201 189 176 171 173 174 176 170 167 166 165 161 152 144 147 153 162 174 168 195 241 288 340 340 331 332 333 323 306 273 283 302 304 295 288 288 295 302 303 301 278 269 283
185 172 168 165 170 172 168 152 156 166 165 158 161 157 161 170 169 170 179 199 216 277 325 316 315 326 339 340 306 280 314 327 307 296 298 305 301 307 310 296 291 272 266
195 181 164 152 140 137 146 147 148 144 146 152 158 149 160 158 151 170 188 193 205 224 251 279 292 301 313 326 328 309 314 307 306 308 301 301 307 309 309 304 299 289 277
175 171 149 129 128 141 144 148 153 158 166 163 157 156 152 149 152 171 191 176 195 222 242 258 274 295 317 323 302 293 291 273 277 288 296 297 305 299 295 294 294 291 282
145 129 136 146 155 162 160 158 160 164 157 147 148 148 155 161 175 190 182 147 148 164 257 330 270 284 287 294 287 267 266 265 264 266 267 277 287 295 298 293 286 287 291
177 159 173 191 175 168 169 173 177 167 152 140 145 164 181 190 199 186 168 162 157 167 199 236 267 279 280 279 279 278 265 269 282 281 275 277 272 275 280 284 279 282 286
219 207 207 221 201 178 180 182 188 176 160 146 152 195 191 162 157 156 163 147 148 189 200 234 283 294 283 263 267 271 268 258 281 292 295 299 303 298 292 288 283 287 286
241 232 218 208 207 203 206 200 201 197 167 162 180 187 135 121 151 169 158 100 76 3 52 290 280 286 289 287 297 298 275 268 272 295 305 312 311 312 312 311 310 310 298
243 236 231 222 216 211 202 203 210 187 167 168 174 162 141 126 140 145 108 94 46 50 320 301 286 284 292 300 302 304 308 276 269 275 294 307 315 321 319 314 317 321 320
235 238 234 230 221 210 202 198 184 170 168 176 183 176 158 157 142 127 130 63 288 273 272 291 287 289 298 311 310 313 339 312 280 275 280 287 295 304 310 298 303 302 307
233 231 224 216 200 199 192 169 166 163 170 193 201 201 188 190 190 203 236 248 233 289 272 280 275 276 294 309 308 313 311 296 288 287 289 288 285 300 307 305 304 308 309
249 232 200 179 186 201 173 161 175 179 204 217 218 210 196 197 211 218 232 249 262 269 287 304 294 276 281 299 306 306 277 278 290 291 288 293 297 300 304 299 295 301 304
275 198 171 183 201 190 165 173 186 213 226 218 206 205 203 204 211 216 224 206 235 276 296 299 300 289 284 299 303 301 293 268 277 284 288 291 302 302 303 304 295 294 303
308 172 172 210 206 176 168 187 219 230 199 179 192 219 224 224 211 191 216 213 198 214 272 292 310 299 288 295 301 307 305 298 277 280 284 288 298 302 303 305 302 305 317
258 209 175 202 226 192 179 197 232 198 169 173 210 233 249 248 228 209 215 220 206 212 247 260 283 295 293 291 297 299 301 298 292 282 285 291 297 301 301 303 306 311 311
249 206 169 197 244 232 211 208 209 183 169 201 227 234 232 253 246 234 222 218 220 224 236 245 263 282 289 281 283 284 289 290 290 293 294 299 301 308 309 311 314 310 295
279 213 202 223 247 251 254 234 206 181 190 216 230 237 238 237 245 246 236 233 230 226 228 234 243 260 273 278 281 279 275 263 262 282 291 301 310 315 317 314 307 302 301
263 247 244 241 249 248 262 264 234 200 194 222 232 229 235 238 238 245 279 270 259 262 259 255 257 267 273 284 288 284 282 282 279 282 280 283 285 283 290 297 304 304 299
Height
1502 1504 1505 1507 1509 1510 1513 1515 1517 1518 1519 1520 1521 1523 1524 1525 1526 1526 1526 1527 1528 1528 1528 1529 1529 1529 1529 1529 1529 1529 1528 1528 1528 1527 1526 1526 1526 1526 1525 1525 1525 1525 1524
1499 1500 1502 1504 1506 1507 1510 1512 1514 1515 1517 1518 1520 1521 1521 1522 1523 1524 1524 1525 1525 1525 1526 1526 1526 1526 1526 1526 1526 1526 1526 1526 1526 1525 1524 1523 1523 1522 1522 1522 1522 1521 1521
1494 1496 1499 1501 1503 1505 1507 1509 1511 1513 1514 1516 1517 1518 1519 1520 1521 1521 1521 1522 1522 1523 1523 1523 1524 1523 1524 1523 1523 1523 1523 1523 1523 1523 1524 1523 1521 1520 1519 1519 1519 1518 1518
1491 1493 1495 1497 1499 1502 1504 1506 1508 1510 1512 1513 1514 1515 1516 1517 1518 1518 1519 1519 1519 1520 1520 1521 1521 1521 1521 1521 1521 1521 1521 1521 1520 1521 1521 1521 1520 1519 1516 1516 1515 1515 1514
1487 1489 1491 1494 1496 1499 1501 1503 1505 1507 1509 1510 1511 1512 1513 1514 1515 1516 1516 1517 1517 1517 1517 1518 1518 1518 1518 1517 1517 1517 1518 1517 1517 1517 1517 1517 1517 1516 1515 1512 1511 1510 1510
1483 1486 1488 1491 1493 1495 1497 1500 1502 1504 1506 1507 1508 1509 1510 1511 1512 1513 1513 1514 1514 1514 1514 1514 1514 1514 1514 1514 1514 1514 1514 1514 1514 1514 1514 1514 1514 1513 1512 1510 1508 1506 1505
1480 1482 1485 1487 1489 1491 1494 1496 1498 1500 1502 1504 1505 1506 1507 1508 1509 1509 1510 1511 1511 1511 1511 1511 1511 1511 1511 1511 1510 1510 1511 1511 1510 1510 1510 1510 1510 1510 1509 1508 1505 1503 1501
1477 1479 1481 1484 1486 1488 1491 1493 1495 1497 1499 1500 1502 1503 1504 1505 1506 1506 1507 1507 1508 1508 1508 1508 1508 1507 1507 1507 1507 1507 1506 1506 1507 1506 1506 1506 1506 1506 1506 1504 1503 1500 1497
1475 1477 1479 1481 1484 1486 1488 1490 1492 1494 1496 1497 1499 1500 1501 1502 1502 1503 1504 1504 1504 1504 1504 1504 1504 1504 1504 1503 1503 1503 1502 1503 1503 1503 1503 1502 1502 1502 1501 1500 1500 1499 1495
1474 1475 1477 1479 1482 1484 1486 1487 1489 1491 1493 1494 1495 1496 1497 1498 1499 1500 1500 1500 1501 1501 1501 1501 1501 1500 1500 1500 1500 1499 1499 1499 1499 1499 1499 1499 1498 1497 1497 1496 1495 1494 1493
1473 1474 1476 1478 1480 1482 1483 1485 1487 1488 1490 1491 1492 1493 1494 1495 1496 1496 1497 1497 1497 1497 1497 1497 1497 1497 1496 1496 1496 1496 1496 1495 1495 1495 1495 1494 1494 1493 1492 1491 1490 1489 1488
1472 1474 1475 1477 1478 1480 1481 1483 1484 1486 1487 1488 1489 1490 1491 1491 1492 1493 1493 1493 1493 1493 1493 1493 1493 1493 1493 1492 1492 1492 1492 1492 1492 1491 1490 1490 1489 1488 1487 1486 1485 1484 1483
1472 1473 1474 1475 1476 1478 1479 1480 1482 1483 1484 1485 1486 1487 1488 1488 1489 1489 1489 1490 1490 1490 1489 1489 1489 1489 1489 1489 1489 1489 1488 1488 1488 1487 1486 1486 1485 1484 1483 1482 1480 1479 1478
1471 1471 1472 1473 1474 1476 1477 1478 1479 1480 1481 1482 1483 1484 1484 1485 1485 1486 1486 1486 1486 1486 1486 1485 1485 1485 1485 1485 1485 1485 1484 1484 1484 1483 1483 1482 1481 1480 1479 1478 1476 1474 1473
1469 1469 1470 1471 1473 1474 1474 1475 1477 1478 1479 1479 1480 1481 1481 1482 1482 1482 1482 1483 1483 1483 1482 1482 1482 1482 1482 1481 1481 1481 1481 1480 1480 1479 1478 1478 1477 1476 1475 1474 1472 1470 1468
1467 1468 1468 1469 1470 1471 1472 1473 1474 1475 1476 1476 1477 1478 1478 1478 1479 1479 1479 1479 1479 1479 1479 1479 1478 1478 1478 1478 1478 1478 1477 1476 1476 1475 1474 1473 1473 1472 1471 1470 1469 1467 1465
1465 1466 1466 1467 1468 1469 1470 1471 1471 1472 1473 1473 1474 1474 1475 1475 1476 1476 1476 1476 1476 1476 1475 1475 1475 1474 1474 1474 1474 1474 1473 1473 1472 1471 1470 1469 1469 1468 1467 1466 1464 1463 1461
1464 1464 1464 1465 1466 1467 1468 1468 1469 1469 1470 1470 1471 1472 1472 1472 1472 1473 1473 1473 1473 1472 1472 1471 1471 1471 1471 1471 1471 1470 1470 1469 1469 1468 1467 1466 1465 1464 1463 1462 1460 1459 1457
1461 1461 1462 1462 1463 1464 1465 1465 1466 1466 1467 1467 1468 1469 1469 1469 1469 1470 1470 1470 1469 1469 1469 1468 1468 1468 1468 1468 1467 1467 1466 1465 1465 1464 1463 1463 1462 1461 1460 1458 1457 1455 1454
1458 1458 1459 1459 1460 1461 1462 1462 1463 1463 1464 1465 1465 1466 1466 1466 1467 1467 1467 1467 1466 1466 1466 1465 1465 1465 1465 1465 1464 1464 1463 1461 1461 1461 1460 1459 1458 1458 1457 1455 1453 1452 1451
1455 1455 1456 1456 1457 1458 1459 1459 1460 1460 1461 1462 1462 1463 1463 1464 1464 1464 1464 1464 1463 1463 1463 1462 1462 1462 1462 1461 1461 1461 1460 1459 1458 1457 1456 1456 1455 1454 1453 1452 1451 1449 1448
1452 1452 1452 1453 1454 1455 1455 1456 1456 1457 1458 1459 1459 1460 1461 1461 1461 1461 1461 1461 1461 1460 1460 1460 1459 1459 1459 1459 1458 1458 1457 1456 1455 1454 1453 1453 1452 1451 1450 1449 1448 1447 1445
1449 1450 1450 1450 1451 1452 1453 1453 1454 1454 1455 1456 1456 1457 1457 1458 1458 1458 1458 1457 1457 1457 1457 1457 1456 1456 1456 1456 1455 1455 1454 1453 1452 1451 1451 1449 1448 1448 1447 1446 1444 1443 1442
1447 1447 1447 1447 1448 1449 1450 1450 1451 1452 1452 1452 1453 1454 1454 1454 1455 1455 1454 1454 1454 1454 1454 1453 1453 1453 1453 1453 1452 1451 1451 1450 1449 1448 1447 1446 1445 1444 1443 1442 1441 1440 1439
1445 1445 1445 1445 1445 1446 1447 1448 1448 1449 1449 1449 1450 1450 1451 1451 1451 1451 1451 1451 1451 1451 1451 1451 1451 1450 1449 1449 1449 1448 1447 1446 1446 1445 1444 1443 1442 1440 1440 1439 1438 1437 1436
1443 1443 1443 1443 1443 1444 1444 1445 1445 1446 1446 1446 1447 1447 1447 1447 1447 1447 1448 1448 1448 1448 1448 1448 1448 1447 1447 1446 1446 1445 1444 1443 1443 1442 1440 1439 1438 1437 1436 1436 1434 1433 1432